La Tuque, Quebec

4:32 AM EDT on May 27, 2017 (GMT -0400)
La Tuque

Weather History for CWDQ - April, 2013

Change the Weather History Date:

Tuesday, April 30, 2013

  Actual Average Record
Temperature  
Mean Temperature 56 °F -  
Max Temperature 67 °F - - ()
Min Temperature 45 °F - - ()
Degree Days  
Heating Degree Days 9    
Growing Degree Days 6 (Base 50)    
Moisture  
Dew Point 44 °F    
Average Humidity 58    
Maximum Humidity 86    
Minimum Humidity 34    
Precipitation  
Precipitation 0.00 in - - ()
Sea Level Pressure  
Sea Level Pressure 30.23 in    
Wind  
Wind Speed 4 mph ()    
Max Wind Speed 9 mph    
Max Gust Speed -    
T = Trace of Precipitation, MM = Missing Value Source: Averaged Metar Reports

Daily Weather History Graph

Daily Weather History Graph

Search for Another Location

Airport or City:

Trip Planner

Search our weather history database for the weather conditions in past years. The results will help you decide how hot, cold, wet, or windy it might be!

Date:

Astronomy

Apr. 30, 2013 Rise Set
Actual Time 5:35 AM EDT 8:01 PM EDT
Civil Twilight 5:01 AM EDT 8:36 PM EDT
Nautical Twilight 4:19 AM EDT 9:19 PM EDT
Astronomical Twilight 3:30 AM EDT 10:08 PM EDT
Moon 12:27 AM EDT (4/30) 9:57 AM EDT (4/30)
Length of Visible Light 15h 34m
Length of Day
14h 25m
Waning Gibbous, 70% of the Moon is Illuminated
Apr 30
Waning Gibbous
May 2
Last Quarter
May 9
New
May 18
First Quarter
May 25
Full

Hourly Weather History & Observations

Time (EDT) Temp. Dew Point Humidity Pressure Visibility Wind Dir Wind Speed Gust Speed Precip Events Conditions
12:00 AM 56.5 °F 39.9 °F 54% 30.14 in - SE 2.3 mph - N/A   Unknown
1:00 AM 55.2 °F 39.7 °F 56% 30.15 in - SSE 2.3 mph - N/A   Unknown
2:00 AM 54 °F 40 °F 49% 30.17 in - ESE 1.2 mph - -  
2:00 AM 53.6 °F 40.3 °F 61% 30.17 in - ESE 1.2 mph - N/A   Unknown
3:00 AM 53.1 °F 41.2 °F 64% 30.18 in - South 3.5 mph - N/A   Unknown
4:00 AM 52.3 °F 41.9 °F 68% 30.19 in - SSE 4.6 mph - N/A   Unknown
5:00 AM 50.0 °F 41.9 °F 74% 30.21 in - SSE 2.3 mph - N/A   Unknown
7:00 AM 50.9 °F 42.4 °F 73% 30.24 in - South 2.3 mph - N/A   Unknown
8:00 AM 52 °F 42 °F 59% 30.26 in - South 3.5 mph - -  
8:00 AM 52.0 °F 41.9 °F 69% 30.26 in - South 3.5 mph - N/A   Unknown
9:00 AM 53.8 °F 40.8 °F 62% 30.26 in - South 8.1 mph - N/A   Unknown
10:00 AM 57.2 °F 42.1 °F 57% 30.26 in - South 8.1 mph - N/A   Unknown
11:00 AM 57.7 °F 43.2 °F 58% 30.26 in - SSE 6.9 mph - N/A   Unknown
12:00 PM 61.2 °F 42.1 °F 50% 30.25 in - SSE 9.2 mph - N/A   Unknown
1:00 PM 63.0 °F 43.3 °F 49% 30.25 in - South 9.2 mph - N/A   Unknown
2:00 PM 66 °F 44 °F 34% 30.24 in - SSW 6.9 mph - -  
2:00 PM 65.8 °F 44.1 °F 45% 30.24 in - SSW 6.9 mph - N/A   Unknown
3:00 PM 66.0 °F 45.3 °F 47% 30.24 in - SSW 9.2 mph - N/A   Unknown
4:00 PM 66.4 °F 45.9 °F 48% 30.24 in - South 8.1 mph - N/A   Unknown
5:00 PM 67.1 °F 46.6 °F 48% 30.24 in - SSW 6.9 mph - N/A   Unknown
6:00 PM 65.7 °F 46.4 °F 50% 30.24 in - SSW 5.8 mph - N/A   Unknown
7:00 PM 64.9 °F 46.8 °F 52% 30.25 in - SSW 2.3 mph - N/A   Unknown
8:00 PM 60 °F 47 °F 52% 30.25 in - SE 1.2 mph - -  
8:00 PM 60.4 °F 47.1 °F 61% 30.25 in - SE 1.2 mph - N/A   Unknown
9:00 PM 57.9 °F 47.8 °F 69% 30.27 in - East 1.2 mph - N/A   Unknown
10:00 PM 54.7 °F 46.0 °F 73% 30.28 in - East 2.3 mph - N/A   Unknown
11:00 PM 49.1 °F 45.0 °F 86% 30.28 in - East 1.2 mph - N/A   Unknown